EST,Max TemperatureF,Mean TemperatureF,Min TemperatureF,Max Dew PointF,MeanDew PointF,Min DewpointF,Max Humidity, Mean Humidity, Min Humidity, Max Sea Level PressureIn, Mean Sea Level PressureIn, Min Sea Level PressureIn, Max VisibilityMiles, Mean VisibilityMiles, Min VisibilityMiles, Max Wind SpeedMPH, Mean Wind SpeedMPH, Max Gust SpeedMPH,PrecipitationIn, CloudCover, Events, WindDirDegrees
2014-1-1,25,21,16,18,15,10,81,78,74,30.35,30.24,30.09,10,6,1,18,5,22,0.01,8,Snow,139
2014-1-2,25,16,7,19,15,0,88,79,70,30.08,29.81,29.66,10,3,0,21,10,25,0.07,8,Fog-Snow,61
2014-1-3,11,7,2,-2,-5,-7,79,63,46,30.43,30.21,29.83,10,9,2,21,9,28,T,3,Snow,299
2014-1-4,36,21,6,7,2,-2,76,51,25,30.35,30.22,30.12,10,10,10,22,7,32,0.00,1,,168
2014-1-5,42,31,19,39,23,5,92,65,38,30.14,29.85,29.46,10,9,2,20,8,28,0.04,6,Rain,131
2014-1-6,43,17,-9,41,10,-19,85,73,61,30.03,29.66,29.34,10,3,1,31,21,45,0.29,8,Rain-Snow,259
2014-1-7,0,-6,-13,-8,-16,-22,72,65,58,30.39,30.18,29.95,10,4,1,28,17,36,0.00,6,,249
2014-1-8,17,7,-3,13,1,-8,80,69,58,30.51,30.45,30.36,10,10,6,16,6,20,T,6,,229
2014-1-9,30,24,17,21,14,10,84,71,57,30.61,30.46,30.36,10,9,2,13,5,16,T,6,Snow,180
2014-1-10,37,32,27,36,29,19,92,81,69,30.38,30.21,29.96,10,4,0,16,7,24,0.06,8,Fog-Snow,129
2014-1-11,52,43,34,47,41,29,93,82,70,29.92,29.52,29.33,10,6,0,38,13,52,0.55,8,Fog-Rain,199
2014-1-12,34,32,29,30,27,23,85,79,72,30.04,29.83,29.57,10,8,2,25,11,36,T,7,Snow,255
2014-1-13,49,41,33,43,31,23,92,66,39,30.00,29.87,29.72,10,9,6,10,6,22,0.27,3,Rain,198
2014-1-14,47,39,30,44,35,27,93,86,78,29.82,29.73,29.67,10,7,3,16,6,24,0.21,6,Rain,258
2014-1-15,37,31,24,30,22,13,82,68,54,29.99,29.88,29.76,10,10,6,21,10,26,T,7,Snow,246
2014-1-16,29,24,18,16,12,9,74,65,55,29.99,29.91,29.80,10,10,9,10,7,23,T,5,,227
2014-1-17,36,31,26,27,25,23,92,89,85,29.85,29.80,29.74,10,2,0,20,8,31,0.19,8,Fog-Snow,248
2014-1-18,26,18,9,21,10,0,88,77,66,29.96,29.86,29.79,10,7,0,20,11,24,0.01,7,Fog-Snow,257
2014-1-19,28,20,12,18,12,7,88,76,63,29.86,29.70,29.58,10,6,2,25,12,32,0.02,7,Snow,220
2014-1-20,32,25,18,27,20,10,78,71,63,29.91,29.70,29.54,10,9,2,23,14,31,T,8,,277
2014-1-21,18,9,-1,9,2,-10,76,62,48,30.03,29.90,29.80,10,7,1,16,9,21,T,6,Snow,16
2014-1-22,9,2,-6,0,-7,-12,83,67,50,30.05,30.00,29.90,10,9,2,14,7,17,0.00,3,,285
2014-1-23,12,6,0,5,1,-4,87,80,73,30.38,30.11,29.89,10,3,0,21,9,26,T,8,Snow,262
2014-1-24,14,7,0,-2,-4,-6,79,62,44,30.43,30.24,29.82,10,6,2,21,14,28,T,7,,237
2014-1-25,23,16,9,18,12,-4,84,64,43,29.77,29.43,29.23,10,3,0,23,14,33,0.01,7,Fog-Snow,241
2014-1-26,34,19,3,22,4,-3,86,74,61,29.79,29.65,29.53,10,7,0,24,12,32,0.01,7,Snow,226
2014-1-27,41,21,0,27,8,-10,88,65,42,30.21,29.76,29.44,10,5,0,38,17,52,0.02,6,Fog-Snow,272
2014-1-28,3,-4,-11,-9,-12,-16,79,65,51,30.41,30.28,30.12,10,9,3,18,9,28,0.00,2,,243
2014-1-29,13,3,-8,-4,-9,-16,71,59,46,30.32,30.23,30.16,10,10,10,28,13,35,0.00,0,,242
2014-1-30,30,16,1,2,-4,-8,69,44,19,30.35,30.20,29.98,10,10,10,14,7,21,0.00,0,,181
2014-1-31,35,30,24,26,15,3,85,59,32,30.18,30.08,29.97,10,10,4,20,10,25,T,8,Snow,239